Location: Albany
(35.0000°S, 118.0000°E)
Time: 22:40:09
(UTC-05:00)

Atlas Centaur 2 - Visible Passes

Search period start: 19 December 2014 00:00
Search period end: 29 December 2014 00:00
Orbit: 460 x 1326 km, 30.4° (Epoch: 18 December)

Date Brightness Start Highest point End Pass type
(mag) Time Alt. Az. Time Alt. Az. Time Alt. Az.
19 Dec 3.0 07:49:08 10° W 07:57:40 64° N 08:03:20 20° ENE visible
19 Dec 3.3 09:39:28 10° W 09:46:06 45° NW 09:46:06 45° NW visible
20 Dec 3.1 07:47:46 10° W 07:56:19 64° N 08:01:56 21° ENE visible
20 Dec 3.4 09:38:10 10° W 09:44:41 41° NW 09:44:41 41° NW visible
21 Dec 3.2 07:46:25 10° W 07:54:57 62° N 08:00:29 21° ENE visible
21 Dec 3.6 09:36:53 10° W 09:43:14 36° NW 09:43:14 36° NW visible
22 Dec 3.2 07:45:05 10° W 07:53:34 59° N 07:59:00 22° ENE visible
22 Dec 3.8 09:35:40 10° W 09:41:45 32° NW 09:41:45 32° NW visible
23 Dec 3.3 07:43:46 10° W 07:52:10 54° NNW 07:57:30 22° NE visible
23 Dec 4.0 09:34:32 10° W 09:40:15 28° NW 09:40:15 28° NW visible
24 Dec 3.5 07:42:29 10° W 07:50:43 50° NNW 07:56:00 22° NE visible
24 Dec 4.3 09:33:31 10° W 09:38:45 23° NW 09:38:45 23° NW visible
25 Dec 3.6 07:41:13 10° W 07:49:16 44° NNW 07:54:30 21° NE visible
25 Dec 4.5 09:32:41 10° WNW 09:37:15 19° NW 09:37:15 19° NW visible
26 Dec 3.8 07:40:01 10° W 07:47:47 39° NNW 07:53:01 20° NNE visible
26 Dec 4.7 09:32:10 10° WNW 09:35:46 15° NW 09:35:46 15° NW visible
27 Dec 4.0 07:38:52 10° W 07:46:16 34° NNW 07:51:33 18° NNE visible
27 Dec 4.9 09:32:20 10° WNW 09:34:18 12° NW 09:34:18 12° NW visible
28 Dec 4.2 07:37:50 10° W 07:44:45 28° NNW 07:50:07 15° NNE visible
